When you browse on this site, cookies collect data to enhance your experience and personalize the content and advertising you see.
Visit our Privacy Policy to learn more. By continuing to use the site, you agree to this use of cookies and data.
  • In Lithuania
  • List of Countries
  • For 7 days
  • Water Temperature
  • Weather Map
  • Weather Widgets
  • user-avatar
    Login

    Hourly Weather Biskira

    Today, 15 October, Tuesday

    Time Temperature Precipitation Wind Pressure Humidity
    00:00 +27°C° 0 mm 2 mps 753 mmHg 45%
    01:00 +27°C° 0.4 mm 3 mps 753 mmHg 49%
    02:00 +26°C° 0.4 mm 3 mps 753 mmHg 52%
    03:00 +25°C° 0.4 mm 4 mps 752 mmHg 55%
    04:00 +25°C° 0.2 mm 3 mps 753 mmHg 56%
    05:00 +25°C° 0.2 mm 2 mps 753 mmHg 58%
    06:00 +25°C° 0 mm 1 mps 753 mmHg 56%
    07:00 +26°C° 0.1 mm 1 mps 754 mmHg 53%
    08:00 +27°C° 0.1 mm 1 mps 754 mmHg 50%
    09:00 +28°C° 0.1 mm 2 mps 754 mmHg 48%
    10:00 +29°C° 0 mm 2 mps 754 mmHg 44%
    11:00 +30°C° 0 mm 3 mps 754 mmHg 40%
    12:00 +31°C° 0 mm 3 mps 753 mmHg 36%
    13:00 +32°C° 0 mm 4 mps 753 mmHg 35%
    14:00 +33°C° 0 mm 4 mps 752 mmHg 33%
    15:00 +33°C° 0 mm 5 mps 752 mmHg 31%
    16:00 +32°C° 0.3 mm 4 mps 752 mmHg 34%
    17:00 +29°C° 0.3 mm 4 mps 753 mmHg 36%
    18:00 +28°C° 0.3 mm 4 mps 753 mmHg 39%
    19:00 +28°C° 0.1 mm 4 mps 754 mmHg 39%
    20:00 +28°C° 0.1 mm 3 mps 754 mmHg 38%
    21:00 +28°C° 0.1 mm 3 mps 755 mmHg 38%
    22:00 +27°C° 0 mm 3 mps 755 mmHg 39%
    23:00 +27°C° 0 mm 3 mps 755 mmHg 40%

    Tomorrow, 16 October, Wednesday

    Time Temperature Precipitation Wind Pressure Humidity
    00:00 +26°C° 0 mm 3 mps 755 mmHg 40%
    01:00 +26°C° 0 mm 3 mps 754 mmHg 43%
    02:00 +25°C° 0 mm 3 mps 754 mmHg 46%
    03:00 +25°C° 0 mm 3 mps 754 mmHg 49%
    04:00 +25°C° 0 mm 2 mps 754 mmHg 52%
    05:00 +24°C° 0 mm 2 mps 754 mmHg 55%
    06:00 +24°C° 0 mm 1 mps 754 mmHg 58%
    07:00 +25°C° 0 mm 2 mps 754 mmHg 55%
    08:00 +26°C° 0 mm 3 mps 755 mmHg 51%
    09:00 +27°C° 0 mm 4 mps 755 mmHg 48%
    10:00 +28°C° 0 mm 4 mps 755 mmHg 45%
    11:00 +29°C° 0 mm 4 mps 754 mmHg 42%
    12:00 +30°C° 0 mm 3 mps 754 mmHg 40%
    13:00 +30°C° 0 mm 3 mps 754 mmHg 38%
    14:00 +31°C° 0 mm 2 mps 754 mmHg 37%
    15:00 +31°C° 0 mm 2 mps 753 mmHg 36%
    16:00 +30°C° 0 mm 2 mps 753 mmHg 37%
    17:00 +30°C° 0 mm 2 mps 753 mmHg 38%
    18:00 +29°C° 0 mm 2 mps 753 mmHg 40%
    19:00 +29°C° 0 mm 2 mps 753 mmHg 41%
    20:00 +28°C° 0 mm 2 mps 754 mmHg 43%
    21:00 +28°C° 0 mm 2 mps 754 mmHg 44%
    22:00 +28°C° 0 mm 2 mps 754 mmHg 45%
    23:00 +28°C° 0 mm 3 mps 754 mmHg 46%

    Day after tomorrow, 17 October, Thursday

    Time Temperature Precipitation Wind Pressure Humidity
    00:00 +28°C° 0 mm 3 mps 754 mmHg 48%
    01:00 +27°C° 0 mm 3 mps 754 mmHg 52%
    02:00 +26°C° 0 mm 3 mps 754 mmHg 57%
    03:00 +25°C° 0 mm 4 mps 754 mmHg 61%
    04:00 +25°C° 0 mm 4 mps 754 mmHg 64%
    05:00 +25°C° 0 mm 3 mps 754 mmHg 66%
    06:00 +24°C° 0 mm 3 mps 754 mmHg 69%
    07:00 +25°C° 0 mm 4 mps 754 mmHg 64%
    08:00 +26°C° 0 mm 4 mps 754 mmHg 60%
    09:00 +27°C° 0 mm 4 mps 754 mmHg 56%
    10:00 +28°C° 0 mm 4 mps 754 mmHg 53%
    11:00 +29°C° 0 mm 4 mps 754 mmHg 49%
    12:00 +29°C° 0 mm 3 mps 754 mmHg 46%
    13:00 +30°C° 0 mm 3 mps 754 mmHg 44%
    14:00 +30°C° 0 mm 2 mps 753 mmHg 43%
    15:00 +30°C° 0 mm 2 mps 753 mmHg 41%
    16:00 +30°C° 0 mm 2 mps 753 mmHg 42%
    17:00 +29°C° 0 mm 2 mps 753 mmHg 44%
    18:00 +29°C° 0 mm 1 mps 753 mmHg 46%
    19:00 +28°C° 0 mm 1 mps 753 mmHg 46%
    20:00 +28°C° 0 mm 1 mps 754 mmHg 47%
    21:00 +28°C° 0 mm 1 mps 754 mmHg 47%
    22:00 +28°C° 0 mm 1 mps 754 mmHg 48%
    23:00 +27°C° 0 mm 1 mps 754 mmHg 49%

    18 October, Friday

    Time Temperature Precipitation Wind Pressure Humidity
    00:00 +27°C° 0 mm 1 mps 753 mmHg 50%
    01:00 +26°C° 0 mm 1 mps 753 mmHg 51%
    02:00 +26°C° 0 mm 1 mps 753 mmHg 52%
    03:00 +26°C° 0 mm 1 mps 753 mmHg 53%
    04:00 +25°C° 0 mm 1 mps 753 mmHg 55%
    05:00 +25°C° 0 mm 1 mps 753 mmHg 56%
    06:00 +25°C° 0 mm 1 mps 753 mmHg 57%
    07:00 +26°C° 0 mm 1 mps 753 mmHg 52%
    08:00 +27°C° 0 mm 2 mps 754 mmHg 47%
    09:00 +29°C° 0 mm 2 mps 754 mmHg 42%
    10:00 +30°C° 0 mm 2 mps 754 mmHg 39%
    11:00 +31°C° 0 mm 2 mps 753 mmHg 35%
    12:00 +32°C° 0 mm 2 mps 753 mmHg 32%
    13:00 +32°C° 0 mm 2 mps 753 mmHg 31%
    14:00 +32°C° 0 mm 1 mps 752 mmHg 29%
    15:00 +32°C° 0 mm 1 mps 752 mmHg 28%
    16:00 +32°C° 0 mm 1 mps 752 mmHg 30%
    17:00 +31°C° 0 mm 1 mps 752 mmHg 33%
    18:00 +30°C° 0 mm 1 mps 752 mmHg 35%
    19:00 +29°C° 0 mm 1 mps 752 mmHg 35%
    20:00 +29°C° 0 mm 1 mps 753 mmHg 36%
    21:00 +29°C° 0 mm 1 mps 753 mmHg 37%
    22:00 +28°C° 0 mm 2 mps 753 mmHg 38%
    23:00 +28°C° 0 mm 2 mps 753 mmHg 39%

    19 October, Saturday

    Time Temperature Precipitation Wind Pressure Humidity
    00:00 +27°C° 0 mm 2 mps 753 mmHg 40%
    01:00 +27°C° 0 mm 2 mps 752 mmHg 41%
    02:00 +27°C° 0 mm 2 mps 752 mmHg 42%
    03:00 +26°C° 0 mm 3 mps 752 mmHg 43%
    04:00 +26°C° 0 mm 3 mps 752 mmHg 44%
    05:00 +26°C° 0 mm 3 mps 752 mmHg 45%
    06:00 +25°C° 0 mm 3 mps 752 mmHg 46%
    07:00 +27°C° 0 mm 4 mps 753 mmHg 42%
    08:00 +28°C° 0 mm 5 mps 753 mmHg 38%
    09:00 +30°C° 0 mm 5 mps 753 mmHg 34%
    10:00 +32°C° 0 mm 5 mps 753 mmHg 32%
    11:00 +33°C° 0 mm 5 mps 752 mmHg 29%
    12:00 +34°C° 0 mm 5 mps 752 mmHg 27%
    13:00 +34°C° 0 mm 4 mps 752 mmHg 26%
    14:00 +34°C° 0 mm 4 mps 751 mmHg 24%
    15:00 +35°C° 0 mm 4 mps 751 mmHg 23%
    16:00 +34°C° 0 mm 3 mps 751 mmHg 25%
    17:00 +33°C° 0 mm 3 mps 751 mmHg 27%
    18:00 +31°C° 0 mm 3 mps 751 mmHg 29%
    19:00 +30°C° 0 mm 3 mps 752 mmHg 31%
    20:00 +30°C° 0 mm 3 mps 752 mmHg 33%
    21:00 +29°C° 0 mm 3 mps 752 mmHg 34%
    22:00 +29°C° 0 mm 3 mps 752 mmHg 36%
    23:00 +28°C° 0 mm 3 mps 752 mmHg 37%

    20 October, Sunday

    Time Temperature Precipitation Wind Pressure Humidity
    00:00 +27°C° 0 mm 3 mps 752 mmHg 39%
    01:00 +27°C° 0 mm 3 mps 752 mmHg 40%
    02:00 +27°C° 0 mm 3 mps 752 mmHg 41%
    03:00 +26°C° 0 mm 3 mps 752 mmHg 42%
    04:00 +26°C° 0 mm 3 mps 752 mmHg 43%
    05:00 +26°C° 0 mm 3 mps 752 mmHg 44%
    06:00 +25°C° 0 mm 3 mps 752 mmHg 46%
    07:00 +27°C° 0 mm 3 mps 752 mmHg 42%
    08:00 +28°C° 0 mm 4 mps 753 mmHg 38%
    09:00 +30°C° 0 mm 4 mps 753 mmHg 34%
    10:00 +30°C° 0 mm 4 mps 752 mmHg 32%
    11:00 +32°C° 0 mm 4 mps 752 mmHg 30%
    12:00 +33°C° 0 mm 5 mps 752 mmHg 27%
    13:00 +33°C° 0 mm 5 mps 751 mmHg 27%
    14:00 +33°C° 0 mm 5 mps 751 mmHg 26%
    15:00 +33°C° 0 mm 5 mps 751 mmHg 26%
    16:00 +32°C° 0 mm 5 mps 751 mmHg 28%
    17:00 +32°C° 0 mm 5 mps 751 mmHg 29%
    18:00 +30°C° 0 mm 5 mps 751 mmHg 31%
    19:00 +29°C° 0 mm 4 mps 751 mmHg 32%
    20:00 +29°C° 0 mm 4 mps 751 mmHg 33%
    21:00 +28°C° 0 mm 4 mps 751 mmHg 34%
    22:00 +28°C° 0 mm 4 mps 751 mmHg 35%
    23:00 +27°C° 0 mm 4 mps 751 mmHg 36%
    Show more